Location: Eckley Miners' Village
(40.9930°N, 75.8630°W)
Time: 01:46:22
(UTC-04:00)

Vanguard 1 Rocket - Pass Details

Date: 08 March 2026
Orbit: 654 x 4213 km, 34.3° (Epoch: 18 April)

Event Time Altitude Azimuth Distance (km) Brightness Sun altitude
Rises 14:54:05 0° 268° (W) 3,690 10.9 39.0°
Reaches altitude 10° 14:56:33 10° 257° (WSW) 3,023 10.8 38.7°
Maximum altitude 15:03:00 31° 198° (SSW) 2,564 11.6 38.0°
Drops below altitude 10° 15:13:51 10° 144° (SE) 5,168 11.5 36.8°
Sets 15:19:47 0° 136° (SE) 6,822 11.9 36.1°
